Погода в Пояркове

Россия / Рязанская область     54°16′53″N   39°10′29″E
темп.,
°C
ветер,
м/с
пор.,
м/с
влажн.,
%
обл.,
%
осадки,
мм/ч
давл.,
гПа
погр.,
м
10 апреля, сб
сб1000:00+2ююз22675 0.0 102712
03:00+2ююз11681 0.0 102810
06:00+1ююв11700 0.0 102810
09:00+6ююв23550 0.0 1028350
12:00+8ююз23455 0.0 10271367
15:00+9юз22405 0.0 10261552
18:00+9юз11480 0.0 102627
21:00+5ю22540 0.0 102711
11 апреля, вс
вс1100:00+4юз22590 0.0 102713
03:00+2зюз22650 0.0 102813
06:00+2з22680 0.0 102910
09:00+7з11540 0.0 1030211
12:00+11с1143100 0.0 1030824
15:00+12ссв223997 0.0 1030990
18:00+11всв3452100 0.0 1030117
21:00+8в3464100 0.0 103166
12 апреля, пн
пн1200:00+6всв3770100 0.0 1032143
03:00+4св41174100 0.0 1032219
06:00+5всв51264100 0.0 1031331
09:00+7всв51083100 0.0 1030395
12:00+11в6876100 0.0 1029588
15:00+14в5766100 0.0 1027692
18:00+13в4975100 0.0 1026297
21:00+11в41282100 0.0 1026185
13 апреля, вт
вт1300:00+9юв4118094 0.0 1026166
03:00+8юв4127827 0.0 1026183
06:00+7юв4108090 0.0 1025168
09:00+12ююв595722 0.0 1025316
12:00+17ююв694598 0.0 1024754
15:00+18ююв6736100 0.0 10231443
18:00+16юв4852100 0.0 1022212
21:00+12юв476155 0.0 1023113
14 апреля, ср
ср1400:00+11юв4116776 0.0 1022203
03:00+9юв477591 0.0 1022110
06:00+8юв41178100 0.0 1021178
09:00+13ююв51057100 0.0 1021385
12:00+17ююв61039100 0.0 1020859
15:00+18ю6940100 0.0 10191383
18:00+16ю3454100 0.0 101870
21:00+12ююв475554 0.0 101899